Flag for Lithuania Weather past 2 weeks in Vilnius, Lithuania

Now
73 °F

Sunny.


Feels Like: 77 °F
Forecast: 52 / 81 °F
Wind: 10 mph from North

Location: Vilnius Airport

Current Time: Jul 2, 2015 at 8:44:20 PM

Latest Report: Jul 2, 2015 at 8:20 PM


Visibility: 10 mi

Pressure: 30.33 "Hg

Humidity: 38%

Dew point: 46 °F

Location of VilniusLocation

Historic Weather in Vilnius — Graph

°F

Vilnius temperature yesterday

Maximum temperature yesterday: 72 °F (at 4:50 PM)
Minimum temperature yesterday: 55 °F (at 12:50 AM)
Average temperature yesterday: 64 °F

Past Weeks' High & Low Weather Summary

 TemperatureHumidityPressure
High75 °F (Jun 29, 3:50 PM)100% (Jun 20, 2:50 AM)30.36 "Hg (Jun 20, 2:50 AM)
Low43 °F (Jun 18, 3:20 AM)29% (Jun 29, 4:50 PM)29.77 "Hg (Jun 19, 3:20 AM)
Average60 °F70%29.98 "Hg
* Reported Jun 17 7:20 PM — Jul 2 7:20 PM, Vilnius, Weather by CustomWeather, © 2015

Note: Actual official high and low records may vary slightly from our data, if they occured in-between our weather recording intervals... More about our weather records

Advertising

Vilnius weather history for previous 24 hours

 ConditionsComfort  
Time TempWeatherWind HumidityBarometerVisibility
7:20 PM
Thu, Jul 2
73 °FSunny.10 mph36%30.33 "Hg10 mi
6:50 PM75 °FPassing clouds.12 mph34%30.33 "HgN/A
6:20 PM75 °FPassing clouds.9 mph36%30.33 "HgN/A
5:50 PM75 °FSunny.13 mph34%30.33 "Hg10 mi
5:20 PM75 °FPassing clouds.9 mph34%30.33 "HgN/A
4:50 PM73 °FPassing clouds.9 mph38%30.36 "HgN/A
4:20 PM75 °FPassing clouds.8 mph34%30.36 "HgN/A
3:50 PM73 °FPassing clouds.7 mph36%30.36 "HgN/A
3:20 PM73 °FPassing clouds.9 mph36%30.36 "HgN/A
2:50 PM73 °FSunny.13 mph33%30.36 "Hg10 mi
2:20 PM70 °FSunny.9 mph43%30.36 "Hg10 mi
1:50 PM72 °FBroken clouds.7 mph41%30.36 "HgN/A
1:20 PM73 °FBroken clouds.10 mph38%30.36 "HgN/A
12:50 PM72 °FBroken clouds.12 mph41%30.36 "HgN/A
12:20 PM72 °FBroken clouds.13 mph47%30.36 "HgN/A
11:50 AM72 °FBroken clouds.10 mph47%30.36 "HgN/A
11:20 AM66 °FBroken clouds.10 mph56%30.36 "HgN/A
10:50 AM66 °FBroken clouds.9 mph60%30.33 "HgN/A
10:20 AM68 °FBroken clouds.7 mph60%30.33 "HgN/A
9:50 AM66 °FBroken clouds.6 mph64%30.33 "HgN/A
9:20 AM66 °FPassing clouds.7 mph64%30.33 "HgN/A
8:50 AM63 °FSunny.6 mph73%30.33 "Hg10 mi
8:20 AM61 °FPassing clouds.6 mph77%30.33 "HgN/A
7:50 AM61 °FSunny.6 mph72%30.33 "Hg10 mi
7:20 AM59 °FSunny.7 mph77%30.30 "Hg10 mi
6:20 AM55 °FSunny.7 mph88%30.30 "Hg10 mi
5:50 AM54 °FSunny.7 mph88%30.30 "Hg10 mi
5:20 AM54 °FClear.5 mph88%30.30 "Hg10 mi
4:50 AM52 °FClear.5 mph88%30.27 "Hg10 mi
4:20 AM52 °FPassing clouds.5 mph88%30.27 "HgN/A
3:50 AM54 °FPassing clouds.6 mph82%30.27 "HgN/A
3:20 AM55 °FClear.6 mph82%30.27 "Hg10 mi
2:50 AM55 °FClear.6 mph82%30.27 "Hg10 mi
2:20 AM55 °FClear.7 mph82%30.24 "Hg10 mi
1:50 AM57 °FClear.8 mph77%30.24 "Hg10 mi
1:20 AM57 °FClear.8 mph72%30.24 "Hg10 mi
12:50 AM57 °FClear.9 mph72%30.24 "Hg10 mi
12:20 AM59 °FClear.12 mph63%30.24 "Hg10 mi
11:50 PM
Wed, Jul 1
61 °FClear.10 mph59%30.24 "Hg10 mi
11:20 PM61 °FClear.9 mph55%30.21 "Hg10 mi
10:50 PM63 °FSunny.8 mph52%30.21 "Hg10 mi
10:20 PM63 °FPassing clouds.7 mph52%30.21 "HgN/A
9:50 PM64 °FSunny.7 mph49%30.21 "Hg10 mi
9:20 PM66 °FSunny.10 mph46%30.18 "Hg10 mi
8:50 PM66 °FSunny.16 mph46%30.18 "Hg10 mi
8:20 PM68 °FPassing clouds.13 mph43%30.18 "HgN/A
Weather by CustomWeather, © 2015

See weather overviewHow to use our weather pages